Location: Killam
(52.7910°N, 111.8608°W)
Time: 16:12:15
(UTC+00:00)

Transit 2A - Pass Details

Date: 15 February 2026
Orbit: 590 x 954 km, 66.7° (Epoch: 9 March)

Event Time Altitude Azimuth Distance (km) Brightness Sun altitude
Rises 03:31:16 0° 316° (NW) 3,633 10.4 -26.5°
Reaches altitude 10° 03:34:04 10° 324° (NW) 2,668 9.4 -26.9°
Enters shadow 03:39:37 39° 26° (NNE) 1,332 7.1 -27.7°
